Location: Unspecified
(0.0000°N, 0.0000°E)
Time: 23:37:50
(UTC+00:00)

Envisat - Pass Details

Date: 09 August 2022
Orbit: 763 x 765 km, 98.2° (Epoch: 15 August)

Event Time Altitude Azimuth Distance (km) Brightness Sun altitude
Rises 03:23:31 0° 31° (NNE) 3,213 6.8 -38.7°
Reaches altitude 10° 03:26:04 10° 42° (NE) 2,291 6.0 -38.1°
Enters shadow 03:29:06 26° 75° (ENE) 1,466 4.9 -37.4°
